Starlink 11503

operational
NORAD ID: 63142 Int'l Des: 2025-043 Owner: SPXS Country: US Constellation: starlink
LEOCIRCULAR

关于 Starlink 11503

正在加载描述...

实时位置

正在加载3D地球...

即将过境

高度历史

Altitude vs Time

uPlot chart will show altitude changes over time

两行轨道根数

1 63142U 25043L 25304.15098909 .00265157 00000-0 20043-2 0 9992
2 63142 42.9995 311.1206 0001119 269.9707 90.1032 15.70844329 38922
Epoch: Oct 31, 2025 • Age: 31 hours

当前状态

高度 354.3 km
速度 7.70 km/s
星下点 1.45°N, 82.62°W
发射日期 Mar 3, 2025
运行时间 0.6 years
类型 internet

技术详情

分类 Payload
质量 960.00 kg
干质量 910.00 kg
总质量 960.00 kg
长度 0.30 m
直径 4.10 m
跨度 29.00 m
形状 Box + pan
制造商 SPXS
平台类型 Starlink V2MD
阶段状态 In Orbit
所有者/国家 SPXS/US

大型星座

Loading constellations...